This is the latest recevied weather packets stored in our database for station/object W0BJ. If no packets are shown the sender has not sent any weather packets the latest 10 day(s).
| Time | Temp. | Humidity | Pressure | Rain* | Wind** | Luminosity | Snow |
|---|---|---|---|---|---|---|---|
| 1777480221 | 17.22° C | 52% | 1020.6 hPa | 0 mm | - | - | - |
| 1777479799 | 16.67° C | 52% | 1020.4 hPa | 0 mm | - | - | - |
| 1777479620 | 16.67° C | 52% | 1020.6 hPa | 0 mm | - | - | - |
| 1777479020 | 16.67° C | 53% | 1020.3 hPa | 0 mm | - | - | - |
| 1777478898 | 16.67° C | 52% | 1020.2 hPa | 0 mm | - | - | - |
| 1777478420 | 17.22° C | 52% | 1020.2 hPa | 0 mm | - | - | - |
| 1777477998 | 17.22° C | 56% | 1020.1 hPa | 0 mm | - | - | - |
| 1777477820 | 16.67° C | 57% | 1020.2 hPa | 0 mm | - | - | - |
| 1777477220 | 16.67° C | 55% | 1020.2 hPa | 0 mm | - | - | - |
| 1777477098 | 16.67° C | 58% | 1020.3 hPa | 0 mm | - | - | - |
| 1777476620 | 16.11° C | 56% | 1020.2 hPa | 0 mm | - | - | - |
| 1777476197 | 16.11° C | 56% | 1020.2 hPa | 0 mm | - | - | - |
| 1777476019 | 16.11° C | 58% | 1020.2 hPa | 0 mm | - | - | - |
| 1777475421 | 16.11° C | 57% | 1020 hPa | 0 mm | - | - | - |
| 1777475299 | 16.11° C | 57% | 1020 hPa | 0 mm | - | - | - |
| 1777474820 | 15.56° C | 61% | 1019.9 hPa | 0 mm | - | - | - |
| 1777474398 | 15.56° C | 61% | 1019.9 hPa | 0 mm | - | - | - |
| 1777474220 | 15.56° C | 64% | 1019.9 hPa | 0 mm | - | - | - |
| 1777473619 | 15° C | 65% | 1019.7 hPa | 0 mm | - | - | - |
| 1777473499 | 15° C | 64% | 1019.9 hPa | 0 mm | - | - | - |
* Rain latest hour (hover to see other rain measurements)
** Current wind speed in m/s (hover to see current wind gust speed)